Location: Newark
(33.6333°S, 78.8500°W)
Time: 18:20:15
(UTC+00:00)

Tiros 1 - Pass Details

Date: 26 October 2019
Orbit: 630 x 664 km, 48.4° (Epoch: 18 November)

Event Time Altitude Azimuth Distance (km) Brightness Sun altitude
Rises 21:21:54 0° 225° (SW) 2,948 11.1 27.1°
Reaches altitude 10° 21:24:33 10° 213° (SSW) 2,033 10.2 26.6°
Maximum altitude 21:28:31 27° 155° (SSE) 1,242 8.6 25.7°
Drops below altitude 10° 21:32:27 10° 97° (E) 2,019 9.2 24.9°
Sets 21:35:04 0° 84° (E) 2,923 9.9 24.4°
